Regional Weather Roundup
Issued by NWS

Home | Current Version | Previous Version | Graphics & Text | Print | Product List | Glossary On
Versions: 1 2 3 4 5 6 7 8 9 10 11 12 13 14 15 16 17 18 19 20 21 22 23 24 25 26 27 28 29 30 31 32 33 34 35 36 37 38 39 40 41 42 43 44 45 46 47 48 49 50
000
ASUS43 KIND 242359
RWRIN

WEATHER ROUNDUP FOR INDIANA
NATIONAL WEATHER SERVICE INDIANAPOLIS IN
700 PM EST TUE JAN 24 2017

NOTE: "FAIR" INDICATES FEW OR NO CLOUDS BELOW 12,000 FEET WITH NO
SIGNIFICANT WEATHER AND/OR OBSTRUCTIONS TO VISIBILITY.

* - STATION DOES NOT REPORT WEATHER SUCH AS PRECIPITATION OR FOG.

+ - STATION NOT QUALITY CONTROLLED BY THE NATIONAL WEATHER SERVICE.
    USE DATA WITH CAUTION...ESPECIALLY DEWPOINT AND RELATIVE
    HUMIDITY OBSERVATIONS.

INZ001>003-010>013-019-020-250100-
NORTHWEST INDIANA

CITY           SKY/WX    TMP DP  RH WIND       PRES   REMARKS
GARY /AIRPORT/ CLOUDY    37  32  81 E6        29.84F
KNOX *+        CLOUDY    36  21  55 E5        29.83F
MONTICELLO +   CLOUDY    38  33  84 SW3       29.85R
6HR MIN TEMP:  38; 6HR MAX TEMP:  40;


$$

LMZ046-743>745-250100-
SOUTHERN LAKE MICHIGAN

STATION/POSITION TIME  TEMP    WIND        PRES    WAVE
                       AIR SEA DIR/SP/G            HT
                 (UTC) (F)     (DEG/KT/KT) (MB)    (FT)
BURNS HARBOR     2340   35      60/  5/  6 1011.2F

$$

INZ004-005-014>016-021>024-250100-
NORTH CENTRAL INDIANA

CITY           SKY/WX    TMP DP  RH WIND       PRES   REMARKS
ELKHART        CLOUDY    37  32  81 CALM      29.84S
GOSHEN         CLOUDY    37  32  82 VRB3      29.83F
6HR MIN TEMP:  37; 6HR MAX TEMP:  40;

SOUTH BEND     CLOUDY    35  32  88 CALM      29.84S
6HR MIN TEMP:  35; 6HR MAX TEMP:  37;


$$

INZ006>009-017-018-025>027-250100-
NORTHEAST INDIANA

CITY           SKY/WX    TMP DP  RH WIND       PRES   REMARKS
ANGOLA *+      CLOUDY    37  27  65 N5        29.82S
FORT WAYNE     CLOUDY    39  33  79 W5        29.84S
6HR MIN TEMP:  39; 6HR MAX TEMP:  41;

KENDALLVILLE + CLOUDY    37  33  85 N6        29.82F

$$

INZ028-029-035-036-043>045-051>053-250100-
WEST CENTRAL INDIANA

CITY           SKY/WX    TMP DP  RH WIND       PRES   REMARKS
CRAWFORDSVL +  CLOUDY    37  36  94 E5        29.82F
6HR MIN TEMP:  37; 6HR MAX TEMP:  38;

LAFAYETTE      CLOUDY    38  33  82 E8        29.81F
6HR MIN TEMP:  38; 6HR MAX TEMP:  39;

TERRE HAUTE    MOCLDY    41  34  76 SE8       29.82F
6HR MIN TEMP:  41; 6HR MAX TEMP:  43;


$$

INZ030>032-037>040-046>048-054>057-064-065-250100-
CENTRAL INDIANA

CITY           SKY/WX    TMP DP  RH WIND       PRES   REMARKS
COLUMBUS       PTCLDY    39  37  93 E3        29.86S
INDIANAPOLIS   CLOUDY    40  33  76 E6        29.83F
6HR MIN TEMP:  40; 6HR MAX TEMP:  42;

-EAGLE CREEK   CLOUDY    40  32  73 SE5       29.82F
6HR MIN TEMP:  40; 6HR MAX TEMP:  42;

KOKOMO +       CLOUDY    39  34  82 CALM      29.86R
6HR MIN TEMP:  39; 6HR MAX TEMP:  40;

MT COMFORT *+  CLOUDY    37  34  87 CALM      29.85S
SHELBYVILLE    MOCLDY    40  34  79 E3        29.84F
6HR MIN TEMP:  40; 6HR MAX TEMP:  43;


$$

INZ033-034-041-042-049-050-058-059-250100-
EAST CENTRAL INDIANA

CITY           SKY/WX    TMP DP  RH WIND       PRES   REMARKS
MUNCIE         CLOUDY    40  33  76 SW3       29.86S
6HR MIN TEMP:  40; 6HR MAX TEMP:  41;


$$

INZ060-061-067>069-081>083-085>088-250100-
SOUTHWEST INDIANA

CITY           SKY/WX    TMP DP  RH WIND       PRES   REMARKS
EVANSVILLE     CLOUDY    43  35  73 SE5       29.83F
6HR MIN TEMP:  43; 6HR MAX TEMP:  47;

HUNTINGBURG *+ PTCLDY    41  35  79 SE7       29.84F
6HR MIN TEMP:  39; 6HR MAX TEMP:  44;


$$

INZ062-063-066-070>080-084-089>092-250100-
SOUTH CENTRAL AND SOUTHEAST INDIANA

CITY           SKY/WX    TMP DP  RH WIND       PRES   REMARKS
BLOOMINGTON    CLOUDY    41  33  73 SE6       29.83F
6HR MIN TEMP:  41; 6HR MAX TEMP:  43;

MADISON *+     CLOUDY    41  34  75 CALM      29.89R
SEYMOUR +      CLOUDY    43  36  75 CALM      29.86F

$$





USA.gov is the U.S. government's official web portal to all federal, state and local government web resources and services.